TimeCST,TemperatureF,Dew PointF,Humidity,Sea Level PressureIn,VisibilityMPH,Wind Direction,Wind SpeedMPH,Gust SpeedMPH,PrecipitationIn,Events,Conditions,WindDirDegrees,DateUTC
12:53 AM,55.0,54.0,96,30.25,10.0,NNE,6.9,-,N/A,,Overcast,30,2013-11-23 06:53:00
1:25 AM,53.6,53.6,100,30.24,9.0,North,9.2,-,N/A,,Overcast,10,2013-11-23 07:25:00
1:53 AM,54.0,53.1,97,30.26,7.0,NNE,9.2,-,0.01,Rain,Light Rain,20,2013-11-23 07:53:00
2:53 AM,53.1,52.0,96,30.26,5.0,North,8.1,-,0.00,,Overcast,10,2013-11-23 08:53:00
3:53 AM,51.1,51.1,100,30.26,5.0,North,11.5,-,N/A,,Overcast,10,2013-11-23 09:53:00
4:53 AM,50.0,48.9,96,30.27,6.0,North,10.4,-,N/A,,Overcast,360,2013-11-23 10:53:00
5:53 AM,48.9,48.0,97,30.30,5.0,North,12.7,19.6,N/A,,Overcast,360,2013-11-23 11:53:00
6:51 AM,48.2,46.4,93,30.30,10.0,NNE,10.4,-,N/A,,Overcast,30,2013-11-23 12:51:00
6:53 AM,48.0,46.0,93,30.32,10.0,NNE,11.5,-,N/A,,Overcast,30,2013-11-23 12:53:00
7:19 AM,48.2,46.4,93,30.32,3.0,North,8.1,-,N/A,,Overcast,10,2013-11-23 13:19:00
7:53 AM,48.0,46.0,93,30.35,3.0,North,8.1,-,0.00,,Overcast,360,2013-11-23 13:53:00
8:21 AM,46.4,44.6,93,30.34,10.0,North,12.7,21.9,0.00,,Overcast,10,2013-11-23 14:21:00
8:43 AM,46.4,44.6,93,30.35,10.0,North,8.1,-,0.00,Rain,Light Rain,10,2013-11-23 14:43:00
8:53 AM,46.9,44.1,90,30.36,10.0,NNE,11.5,18.4,0.00,Rain,Light Rain,30,2013-11-23 14:53:00
9:34 AM,46.4,44.6,93,30.35,2.5,NNE,10.4,-,0.04,Rain,Rain,20,2013-11-23 15:34:00
9:41 AM,46.4,44.6,93,30.36,5.0,North,12.7,19.6,0.04,Rain,Light Rain,360,2013-11-23 15:41:00
9:53 AM,46.9,44.1,90,30.38,5.0,NNE,12.7,18.4,0.05,Rain,Light Rain,20,2013-11-23 15:53:00
10:00 AM,46.4,44.6,93,30.35,2.5,NNE,6.9,18.4,0.03,Rain,Heavy Rain,30,2013-11-23 16:00:00
10:05 AM,46.4,44.6,93,30.36,1.8,NNE,10.4,-,0.04,Rain,Rain,20,2013-11-23 16:05:00
10:14 AM,46.4,44.6,93,30.36,3.0,NNE,9.2,-,0.05,Rain,Light Rain,20,2013-11-23 16:14:00
10:30 AM,46.4,44.6,93,30.36,10.0,North,6.9,-,0.05,,Overcast,10,2013-11-23 16:30:00
10:53 AM,46.9,45.0,93,30.37,10.0,NNE,10.4,-,0.05,,Overcast,20,2013-11-23 16:53:00
11:18 AM,46.4,44.6,93,30.35,2.5,North,9.2,18.4,0.01,Rain,Light Rain,10,2013-11-23 17:18:00
11:29 AM,46.4,44.6,93,30.35,3.0,North,11.5,-,0.02,Rain,Rain,350,2013-11-23 17:29:00
11:51 AM,46.4,44.6,93,30.35,10.0,North,10.4,20.7,0.02,Rain,Light Rain,360,2013-11-23 17:51:00
11:53 AM,46.9,45.0,93,30.36,10.0,North,11.5,20.7,0.02,Rain,Light Rain,10,2013-11-23 17:53:00
12:53 PM,46.0,44.1,93,30.35,8.0,North,12.7,-,0.01,Rain,Light Rain,10,2013-11-23 18:53:00
1:15 PM,46.4,44.6,93,30.33,9.0,NNE,12.7,17.3,0.00,,Overcast,20,2013-11-23 19:15:00
1:38 PM,46.4,44.6,93,30.32,10.0,NNE,10.4,19.6,0.00,,Overcast,20,2013-11-23 19:38:00
1:53 PM,46.0,44.1,93,30.35,7.0,North,9.2,-,0.00,,Overcast,360,2013-11-23 19:53:00
2:27 PM,46.4,44.6,93,30.33,9.0,NNE,13.8,20.7,N/A,,Overcast,20,2013-11-23 20:27:00
2:53 PM,46.0,44.1,93,30.35,7.0,NNE,12.7,17.3,N/A,,Overcast,20,2013-11-23 20:53:00
3:53 PM,46.0,42.1,86,30.36,10.0,North,10.4,20.7,N/A,,Overcast,10,2013-11-23 21:53:00
4:53 PM,46.0,42.1,86,30.36,9.0,North,11.5,17.3,N/A,,Overcast,360,2013-11-23 22:53:00
5:00 PM,44.6,42.8,93,30.35,9.0,North,10.4,-,0.00,Rain,Light Rain,10,2013-11-23 23:00:00
5:22 PM,44.6,42.8,93,30.35,10.0,North,9.2,-,0.00,,Overcast,10,2013-11-23 23:22:00
5:45 PM,44.6,42.8,93,30.35,10.0,NNE,12.7,20.7,0.00,,Overcast,20,2013-11-23 23:45:00
5:53 PM,45.0,42.1,90,30.37,10.0,NNE,9.2,20.7,0.00,,Overcast,20,2013-11-23 23:53:00
6:00 PM,44.6,42.8,93,30.35,10.0,NNE,12.7,19.6,N/A,,Overcast,20,2013-11-24 00:00:00
6:53 PM,45.0,41.0,86,30.40,10.0,North,8.1,-,N/A,,Overcast,360,2013-11-24 00:53:00
7:38 PM,44.6,39.2,81,30.39,10.0,NNE,10.4,17.3,N/A,,Scattered Clouds,20,2013-11-24 01:38:00
7:53 PM,44.1,37.9,79,30.41,10.0,North,12.7,-,N/A,,Clear,10,2013-11-24 01:53:00
8:53 PM,44.1,36.0,73,30.42,10.0,NNE,11.5,-,N/A,,Clear,30,2013-11-24 02:53:00
9:53 PM,42.1,36.0,79,30.44,10.0,NNE,6.9,18.4,N/A,,Clear,20,2013-11-24 03:53:00
10:53 PM,42.1,34.0,73,30.43,10.0,NNE,10.4,17.3,N/A,,Clear,20,2013-11-24 04:53:00
11:53 PM,41.0,33.1,73,30.44,10.0,NNE,11.5,17.3,N/A,,Clear,20,2013-11-24 05:53:00